EWG950 EDDH-EDDS

Flight info

Callsign EWG950
Flight time 0h 58m
Altitude 35000
Route IDEKO7G/33 IDEKO N850 NIE DCT BERXO DCT SILWE DCT OSBIT P605 TOSTU T726 LBU
Aircraft A20N/M-SDE2E3FGHIRWXY/LB1

Departure

Time 2026-05-07 19:17
Airport Hamburg Helmut Schmidt Airport (EDDH)

Arrival

Time 2026-05-07 20:15
Airport Stuttgart Airport (EDDS)
Time Latitude Longitude Altitude Speed Heading
2026-05-07 18:37 53.63208 10.00362 49 ft 0 kts 86°
2026-05-07 19:00 53.63208 10.00356 49 ft 1 kts 86°
2026-05-07 19:01 53.63208 10.00344 49 ft 1 kts 86°
2026-05-07 19:01 53.63207 10.00332 21 ft 1 kts 86°
2026-05-07 19:01 53.63207 10.00320 49 ft 1 kts 86°
2026-05-07 19:01 53.63206 10.00309 66 ft 1 kts 86°
2026-05-07 19:02 53.63206 10.00297 60 ft 1 kts 86°
2026-05-07 19:02 53.63206 10.00285 49 ft 1 kts 86°
2026-05-07 19:02 53.63205 10.00268 49 ft 2 kts 86°
2026-05-07 19:02 53.63204 10.00248 49 ft 2 kts 86°
2026-05-07 19:03 53.63204 10.00228 48 ft 2 kts 86°
2026-05-07 19:03 53.63204 10.00208 48 ft 2 kts 109°
2026-05-07 19:03 53.63209 10.00189 48 ft 2 kts 135°
2026-05-07 19:03 53.63216 10.00179 45 ft 1 kts 155°
2026-05-07 19:04 53.63207 10.00182 48 ft 3 kts 169°
2026-05-07 19:04 53.63196 10.00182 45 ft 1 kts 181°
2026-05-07 19:04 53.63188 10.00183 46 ft 0 kts 177°
2026-05-07 19:08 53.63170 10.00184 47 ft 0 kts 177°
2026-05-07 19:10 53.63151 10.00186 48 ft 0 kts 177°
2026-05-07 19:10 53.63132 10.00188 48 ft 6 kts 177°
2026-05-07 19:11 53.63115 10.00189 47 ft 0 kts 176°
2026-05-07 19:11 53.63095 10.00191 47 ft 5 kts 177°
2026-05-07 19:11 53.63047 10.00161 46 ft 10 kts 206°
2026-05-07 19:11 53.62989 10.00109 44 ft 7 kts 208°
2026-05-07 19:12 53.62945 10.00058 44 ft 3 kts 224°
2026-05-07 19:12 53.62929 10.00022 45 ft 5 kts 240°
2026-05-07 19:12 53.62920 9.99993 45 ft 1 kts 243°
2026-05-07 19:12 53.62911 9.99963 45 ft 5 kts 244°
2026-05-07 19:13 53.62904 9.99936 44 ft 0 kts 243°
2026-05-07 19:14 53.62901 9.99928 44 ft 4 kts 243°
2026-05-07 19:15 53.62867 9.99804 46 ft 10 kts 256°
2026-05-07 19:15 53.62882 9.99735 47 ft 0 kts 329°
2026-05-07 19:17 53.62945 9.99675 47 ft 42 kts 332°
2026-05-07 19:17 53.63465 9.99242 51 ft 122 kts 334°
2026-05-07 19:17 53.64401 9.98432 220 ft 169 kts 335°
2026-05-07 19:17 53.65516 9.97481 737 ft 183 kts 335°
2026-05-07 19:18 53.66523 9.96603 1105 ft 148 kts 336°
2026-05-07 19:18 53.67464 9.95790 1190 ft 158 kts 337°
2026-05-07 19:18 53.68517 9.94903 1418 ft 182 kts 337°
2026-05-07 19:18 53.69717 9.93891 1980 ft 203 kts 336°
2026-05-07 19:19 53.70925 9.92462 2590 ft 223 kts 311°
2026-05-07 19:19 53.71538 9.90044 3470 ft 229 kts 274°
2026-05-07 19:19 53.71330 9.87407 4442 ft 231 kts 252°
2026-05-07 19:19 53.70770 9.84746 5120 ft 251 kts 247°
2026-05-07 19:20 53.70098 9.81891 5759 ft 271 kts 248°
2026-05-07 19:20 53.69418 9.78870 6683 ft 277 kts 249°
2026-05-07 19:20 53.68763 9.75781 7684 ft 281 kts 250°
2026-05-07 19:20 53.68133 9.72658 8712 ft 283 kts 251°
2026-05-07 19:21 53.67508 9.69492 9132 ft 289 kts 251°
2026-05-07 19:21 53.66881 9.66289 9257 ft 287 kts 251°
2026-05-07 19:21 53.66255 9.63091 9370 ft 288 kts 251°
2026-05-07 19:21 53.65352 9.60100 9487 ft 288 kts 230°
2026-05-07 19:22 53.63790 9.58029 9629 ft 289 kts 203°
2026-05-07 19:22 53.61828 9.57290 10204 ft 292 kts 185°
2026-05-07 19:22 53.59761 9.56900 10827 ft 309 kts 186°
2026-05-07 19:22 53.57545 9.56465 11182 ft 332 kts 186°
2026-05-07 19:23 53.55216 9.56002 11870 ft 340 kts 186°
2026-05-07 19:23 53.52882 9.55537 12740 ft 344 kts 187°
2026-05-07 19:23 53.50491 9.55064 13609 ft 349 kts 187°
2026-05-07 19:23 53.48068 9.54585 14411 ft 353 kts 187°
2026-05-07 19:24 53.45611 9.54098 15180 ft 357 kts 187°
2026-05-07 19:24 53.43133 9.53608 15937 ft 361 kts 187°
2026-05-07 19:24 53.40623 9.53112 16696 ft 365 kts 187°
2026-05-07 19:24 53.38086 9.52611 17444 ft 369 kts 187°
2026-05-07 19:25 53.35521 9.52106 18184 ft 373 kts 187°
2026-05-07 19:25 53.32926 9.51596 18846 ft 377 kts 187°
2026-05-07 19:25 53.30307 9.51081 19489 ft 381 kts 187°
2026-05-07 19:25 53.27666 9.50563 20134 ft 384 kts 187°
2026-05-07 19:26 53.25036 9.50048 20779 ft 387 kts 187°
2026-05-07 19:26 53.22347 9.49522 21407 ft 391 kts 187°
2026-05-07 19:26 53.19638 9.48993 22033 ft 394 kts 187°
2026-05-07 19:26 53.16901 9.48460 22656 ft 398 kts 187°
2026-05-07 19:27 53.14139 9.47922 23288 ft 401 kts 187°
2026-05-07 19:27 53.11354 9.47381 23753 ft 405 kts 188°
2026-05-07 19:27 53.08555 9.46838 23853 ft 406 kts 188°
2026-05-07 19:27 53.05728 9.46289 24020 ft 408 kts 188°
2026-05-07 19:28 53.02926 9.45747 24096 ft 406 kts 188°
2026-05-07 19:28 53.00119 9.45204 24113 ft 407 kts 188°
2026-05-07 19:28 52.97331 9.44650 24438 ft 410 kts 188°
2026-05-07 19:28 52.94495 9.44042 25032 ft 411 kts 188°
2026-05-07 19:29 52.91654 9.43422 25529 ft 414 kts 188°
2026-05-07 19:29 52.88787 9.42797 26007 ft 417 kts 188°
2026-05-07 19:29 52.85898 9.42173 26479 ft 420 kts 188°
2026-05-07 19:29 52.82991 9.41549 26949 ft 423 kts 188°
2026-05-07 19:30 52.80066 9.40925 27397 ft 426 kts 188°
2026-05-07 19:30 52.77115 9.40297 27826 ft 429 kts 188°
2026-05-07 19:30 52.74147 9.39666 28252 ft 432 kts 188°
2026-05-07 19:30 52.71157 9.39032 28656 ft 434 kts 188°
2026-05-07 19:31 52.68149 9.38395 29049 ft 437 kts 188°
2026-05-07 19:31 52.65118 9.37876 29431 ft 440 kts 184°
2026-05-07 19:31 52.62040 9.37905 29803 ft 444 kts 176°
2026-05-07 19:31 52.59012 9.38523 30174 ft 447 kts 170°
2026-05-07 19:32 52.55966 9.39645 30494 ft 449 kts 167°
2026-05-07 19:32 52.52914 9.40818 30824 ft 452 kts 167°
2026-05-07 19:32 52.49845 9.41983 30980 ft 454 kts 167°
2026-05-07 19:32 52.46768 9.43140 31073 ft 453 kts 168°
2026-05-07 19:33 52.40622 9.45433 31105 ft 453 kts 168°
2026-05-07 19:33 52.34477 9.47717 31104 ft 453 kts 168°
2026-05-07 19:34 52.31390 9.48861 31310 ft 456 kts 168°
2026-05-07 19:34 52.28339 9.49991 31756 ft 455 kts 168°
2026-05-07 19:34 52.25256 9.51131 32192 ft 454 kts 168°
2026-05-07 19:34 52.22179 9.52267 32624 ft 453 kts 168°
2026-05-07 19:35 52.19104 9.53402 33046 ft 453 kts 168°
2026-05-07 19:35 52.16037 9.54531 33455 ft 452 kts 168°
2026-05-07 19:35 52.12968 9.55660 33842 ft 452 kts 168°
2026-05-07 19:35 52.09897 9.56787 34210 ft 451 kts 168°
2026-05-07 19:36 52.06840 9.57908 34523 ft 451 kts 168°
2026-05-07 19:36 52.03775 9.59030 34807 ft 451 kts 168°
2026-05-07 19:36 52.00709 9.60151 34994 ft 451 kts 168°
2026-05-07 19:36 51.97646 9.61270 35078 ft 450 kts 168°
2026-05-07 19:37 51.91584 9.63479 35107 ft 449 kts 168°
2026-05-07 19:37 51.85479 9.65697 35106 ft 450 kts 168°
2026-05-07 19:38 51.79343 9.67920 35105 ft 457 kts 168°
2026-05-07 19:38 51.73043 9.70195 35104 ft 470 kts 168°
2026-05-07 19:39 51.66601 9.72517 35106 ft 478 kts 168°
2026-05-07 19:39 51.61186 9.74464 35102 ft 482 kts 168°
2026-05-07 19:40 51.53549 9.77200 35103 ft 485 kts 168°
2026-05-07 19:40 51.50336 9.78350 35100 ft 463 kts 168°
2026-05-07 19:40 51.47247 9.79455 35097 ft 446 kts 168°
2026-05-07 19:41 51.42243 9.81238 35103 ft 448 kts 168°
2026-05-07 19:41 51.35118 9.83766 35099 ft 451 kts 168°
2026-05-07 19:42 51.28996 9.85935 35100 ft 451 kts 168°
2026-05-07 19:42 51.23875 9.87533 35096 ft 450 kts 174°
2026-05-07 19:43 51.17633 9.87864 35094 ft 449 kts 185°
2026-05-07 19:43 51.10385 9.87170 35099 ft 449 kts 185°
2026-05-07 19:44 51.05154 9.86700 35098 ft 449 kts 184°
2026-05-07 19:44 50.98951 9.86158 35097 ft 450 kts 184°
2026-05-07 19:45 50.92705 9.85616 35098 ft 450 kts 185°
2026-05-07 19:45 50.86451 9.85074 35099 ft 450 kts 185°
2026-05-07 19:46 50.80205 9.84531 35096 ft 450 kts 185°
2026-05-07 19:46 50.74026 9.83216 35089 ft 449 kts 183°
2026-05-07 19:47 50.67813 9.83169 35090 ft 450 kts 182°
2026-05-07 19:47 50.61561 9.82900 35089 ft 450 kts 184°
2026-05-07 19:48 50.55313 9.82405 35091 ft 450 kts 185°
2026-05-07 19:48 50.49061 9.81865 35090 ft 450 kts 185°
2026-05-07 19:49 50.42854 9.81333 35087 ft 450 kts 185°
2026-05-07 19:49 50.36603 9.80801 35088 ft 450 kts 185°
2026-05-07 19:50 50.30351 9.80272 35088 ft 450 kts 185°
2026-05-07 19:50 50.24097 9.79744 35085 ft 450 kts 185°
2026-05-07 19:51 50.17888 9.79221 35084 ft 450 kts 185°
2026-05-07 19:51 50.11635 9.78696 35047 ft 448 kts 185°
2026-05-07 19:52 50.08528 9.78436 34693 ft 448 kts 185°
2026-05-07 19:52 50.05401 9.78375 33976 ft 452 kts 179°
2026-05-07 19:52 50.02245 9.78582 32929 ft 457 kts 179°
2026-05-07 19:52 49.99041 9.78800 31821 ft 464 kts 179°
2026-05-07 19:53 49.95796 9.79018 30699 ft 469 kts 179°
2026-05-07 19:53 49.92520 9.79234 29550 ft 473 kts 179°
2026-05-07 19:53 49.89262 9.79448 29030 ft 462 kts 179°
2026-05-07 19:53 49.86144 9.79652 28733 ft 448 kts 179°
2026-05-07 19:54 49.83055 9.79852 28075 ft 443 kts 179°
2026-05-07 19:54 49.79965 9.80048 27227 ft 444 kts 179°
2026-05-07 19:54 49.76867 9.80244 26453 ft 448 kts 179°
2026-05-07 19:54 49.73747 9.80442 25867 ft 450 kts 179°
2026-05-07 19:55 49.70602 9.80641 25500 ft 453 kts 179°
2026-05-07 19:55 49.67452 9.80808 24995 ft 455 kts 180°
2026-05-07 19:55 49.64316 9.80946 24745 ft 443 kts 180°
2026-05-07 19:55 49.61280 9.81115 24030 ft 432 kts 177°
2026-05-07 19:56 49.58304 9.81728 22931 ft 430 kts 171°
2026-05-07 19:56 49.55424 9.82543 22082 ft 421 kts 171°
2026-05-07 19:56 49.52579 9.83348 21231 ft 412 kts 171°
2026-05-07 19:56 49.49808 9.84125 20679 ft 397 kts 172°
2026-05-07 19:57 49.47147 9.84866 20395 ft 387 kts 172°
2026-05-07 19:57 49.44477 9.85603 20181 ft 390 kts 172°
2026-05-07 19:57 49.41815 9.86335 19853 ft 388 kts 172°
2026-05-07 19:57 49.39167 9.87063 19291 ft 385 kts 172°
2026-05-07 19:58 49.36555 9.87783 18783 ft 377 kts 172°
2026-05-07 19:58 49.33994 9.88489 17892 ft 374 kts 172°
2026-05-07 19:58 49.31440 9.89186 16453 ft 384 kts 172°
2026-05-07 19:58 49.28790 9.89908 15290 ft 387 kts 171°
2026-05-07 19:59 49.26155 9.90630 14369 ft 382 kts 171°
2026-05-07 19:59 49.23555 9.91342 13443 ft 377 kts 171°
2026-05-07 19:59 49.20988 9.91942 12694 ft 366 kts 179°
2026-05-07 19:59 49.18549 9.91466 12247 ft 345 kts 200°
2026-05-07 20:00 49.16506 9.89769 11787 ft 328 kts 222°
2026-05-07 20:00 49.15138 9.87178 11345 ft 312 kts 244°
2026-05-07 20:00 49.14386 9.84108 10920 ft 301 kts 252°
2026-05-07 20:00 49.13691 9.80980 10493 ft 330 kts 251°
2026-05-07 20:01 49.12920 9.77652 10393 ft 330 kts 251°
2026-05-07 20:01 49.12151 9.74421 10303 ft 318 kts 250°
2026-05-07 20:01 49.11406 9.71335 10158 ft 301 kts 250°
2026-05-07 20:01 49.10700 9.68431 9937 ft 285 kts 250°
2026-05-07 20:02 49.10018 9.65628 9478 ft 276 kts 250°
2026-05-07 20:02 49.09366 9.62953 9176 ft 263 kts 250°
2026-05-07 20:02 49.08743 9.60396 8858 ft 252 kts 250°
2026-05-07 20:02 49.08141 9.57927 8555 ft 253 kts 250°
2026-05-07 20:03 49.07482 9.55221 8221 ft 289 kts 250°
2026-05-07 20:03 49.06783 9.52356 8145 ft 291 kts 250°
2026-05-07 20:03 49.06088 9.49517 8032 ft 279 kts 250°
2026-05-07 20:03 49.05335 9.46833 7614 ft 274 kts 239°
2026-05-07 20:04 49.04068 9.44688 7046 ft 274 kts 217°
2026-05-07 20:04 49.02430 9.43262 6660 ft 267 kts 209°
2026-05-07 20:04 49.00784 9.41916 6515 ft 271 kts 210°
2026-05-07 20:04 48.99147 9.40562 6444 ft 263 kts 210°
2026-05-07 20:05 48.97585 9.39266 6322 ft 248 kts 210°
2026-05-07 20:05 48.96119 9.38047 6189 ft 232 kts 210°
2026-05-07 20:05 48.94765 9.36921 5912 ft 219 kts 210°
2026-05-07 20:05 48.93428 9.35806 5297 ft 220 kts 210°
2026-05-07 20:06 48.92083 9.34683 4686 ft 221 kts 210°
2026-05-07 20:06 48.90716 9.33688 4282 ft 211 kts 193°
2026-05-07 20:06 48.89227 9.33807 4160 ft 224 kts 159°
2026-05-07 20:06 48.87998 9.35168 4045 ft 221 kts 126°
2026-05-07 20:07 48.87197 9.37159 3991 ft 220 kts 119°
2026-05-07 20:07 48.86380 9.39134 3990 ft 221 kts 126°
2026-05-07 20:07 48.85401 9.40933 3989 ft 221 kts 133°
2026-05-07 20:07 48.84298 9.42560 3989 ft 221 kts 138°
2026-05-07 20:08 48.83130 9.44079 3991 ft 221 kts 140°
2026-05-07 20:08 48.81954 9.45524 3991 ft 221 kts 141°
2026-05-07 20:08 48.80749 9.46980 3990 ft 221 kts 141°
2026-05-07 20:08 48.79545 9.48434 3992 ft 221 kts 141°
2026-05-07 20:09 48.78396 9.49826 3982 ft 201 kts 141°
2026-05-07 20:09 48.77262 9.51014 3991 ft 199 kts 156°
2026-05-07 20:09 48.76127 9.52181 3995 ft 198 kts 127°
2026-05-07 20:10 48.73865 9.54006 3990 ft 198 kts 199°
2026-05-07 20:10 48.72868 9.52828 3989 ft 172 kts 246°
2026-05-07 20:10 48.72733 9.51214 3993 ft 150 kts 273°
2026-05-07 20:10 48.72790 9.49634 3991 ft 150 kts 274°
2026-05-07 20:11 48.72842 9.48064 3993 ft 149 kts 273°
2026-05-07 20:11 48.72880 9.46497 3995 ft 149 kts 272°
2026-05-07 20:11 48.72902 9.44922 3943 ft 150 kts 271°
2026-05-07 20:11 48.72855 9.43349 3766 ft 150 kts 264°
2026-05-07 20:12 48.72669 9.41803 3581 ft 149 kts 258°
2026-05-07 20:12 48.72409 9.40276 3378 ft 150 kts 255°
2026-05-07 20:12 48.72125 9.38760 3179 ft 150 kts 255°
2026-05-07 20:12 48.71839 9.37244 2975 ft 149 kts 255°
2026-05-07 20:13 48.71553 9.35736 2790 ft 149 kts 255°
2026-05-07 20:13 48.71270 9.34242 2575 ft 149 kts 255°
2026-05-07 20:13 48.70984 9.32732 2371 ft 149 kts 254°
2026-05-07 20:13 48.70698 9.31224 2158 ft 149 kts 254°
2026-05-07 20:14 48.70413 9.29720 1947 ft 149 kts 254°
2026-05-07 20:14 48.70129 9.28219 1742 ft 148 kts 255°
2026-05-07 20:14 48.69862 9.26814 1557 ft 147 kts 255°
2026-05-07 20:14 48.69629 9.25580 1380 ft 146 kts 255°
2026-05-07 20:15 48.69361 9.24168 1208 ft 138 kts 255°
2026-05-07 20:15 48.69134 9.22957 1223 ft 86 kts 255°
2026-05-07 20:15 48.69016 9.22347 1233 ft 54 kts 254°
2026-05-07 20:15 48.68941 9.21859 1246 ft 40 kts 269°
2026-05-07 20:16 48.68981 9.21502 1251 ft 11 kts 283°
2026-05-07 20:16 48.68982 9.21495 1252 ft 0 kts 283°
2026-05-07 20:17 48.68994 9.21453 1261 ft 5 kts 310°
2026-05-07 20:17 48.69029 9.21414 1257 ft 7 kts 337°
2026-05-07 20:18 48.69078 9.21374 1264 ft 8 kts 306°
2026-05-07 20:18 48.69088 9.21308 1263 ft 5 kts 251°
2026-05-07 20:18 48.69074 9.21251 1264 ft 6 kts 249°
2026-05-07 20:18 48.69058 9.21183 1264 ft 8 kts 250°
2026-05-07 20:19 48.69038 9.21094 1262 ft 10 kts 252°
2026-05-07 20:19 48.69017 9.20984 1270 ft 11 kts 254°
2026-05-07 20:19 48.68996 9.20868 1269 ft 12 kts 255°
2026-05-07 20:19 48.68973 9.20740 1273 ft 14 kts 255°
2026-05-07 20:20 48.68945 9.20595 1273 ft 14 kts 252°
2026-05-07 20:20 48.68917 9.20457 1278 ft 13 kts 253°
2026-05-07 20:20 48.68892 9.20323 1280 ft 14 kts 255°
2026-05-07 20:20 48.68867 9.20181 1284 ft 14 kts 255°
2026-05-07 20:21 48.68840 9.20033 1289 ft 15 kts 253°
2026-05-07 20:21 48.68839 9.19883 1288 ft 15 kts 304°
2026-05-07 20:21 48.68872 9.19767 1293 ft 11 kts 266°
2026-05-07 20:21 48.68859 9.19656 1297 ft 11 kts 257°
2026-05-07 20:22 48.68841 9.19551 1301 ft 10 kts 256°
2026-05-07 20:22 48.68824 9.19451 1304 ft 10 kts 256°
2026-05-07 20:22 48.68819 9.19415 1306 ft 0 kts 265°
2026-05-07 20:22 48.68819 9.19413 1306 ft 4 kts 266°
2026-05-07 20:23 48.68842 9.19377 1309 ft 5 kts 341°
2026-05-07 20:23 48.68872 9.19364 1311 ft 4 kts 344°
2026-05-07 20:23 48.68890 9.19357 1312 ft 0 kts 344°